Вернуться в каталог

DMSP 5D-2 F8 DEB

АктивенSSO
NORAD 60252·DEBRIS·🇺🇸 United States

Запущен Jun 20, 1987 с Vandenberg Space Force Base

Loading…

Ближайшие Пролёты (ближайшие 24 часа)

TLE

СвежийSource: Space-Track

Эпоха: Sep 14, 2026, 18:42 UTC

1 60252U 87053K   26257.77940005  .00000982  00000-0  43731-3 0  9992
2 60252  98.7249  87.3415 0018243 230.2299 129.7274 14.25074504111893

Отслеживайте DMSP 5D-2 F8 DEB в реальном времени с AllMySat

Download on the App Store